Location: LDNL
(36.4545°S, 141.6685°E)
Time: 13:34:32
(UTC+11:00)

Courier 1B Rocket - Pass Details

Date: 04 February 2023
Orbit: 920 x 1202 km, 28.2° (Epoch: 25 March)

Event Time Altitude Azimuth Distance (km) Brightness Sun altitude
Rises 10:52:16 0° 274° (W) 4,093 7.9 46.5°
Reaches altitude 10° 10:55:45 10° 286° (WNW) 3,104 7.4 47.2°
Maximum altitude 11:01:39 24° 336° (NNW) 2,169 7.1 48.3°
Drops below altitude 10° 11:07:19 10° 27° (NNE) 2,963 8.1 49.4°
Sets 11:10:34 0° 40° (NE) 3,867 8.6 50.0°
